�������l�o���
Date,Time,MP-1(��Sv/h),MP-2(��Sv/h),MP-3(��Sv/h),MP-4(��Sv/h),MP-5(��Sv/h),MP-6(��Sv/h),MP-7(��Sv/h),MP-8(��Sv/h),����,����(m/s),���J
2014/11/25,00:00,2.082,3.805,4.138,3.728,3.952,1.313,1.973,2.208,�k,6.7,��
2014/11/25,00:10,2.083,3.805,4.135,3.725,3.958,1.313,1.972,2.207,�k,6.8,��
2014/11/25,00:20,2.082,3.803,4.137,3.727,3.958,1.313,1.972,2.208,�k,6.3,��
2014/11/25,00:30,2.078,3.802,4.138,3.723,3.958,1.313,1.970,2.210,�k�k��,6.3,��
2014/11/25,00:40,2.078,3.802,4.132,3.727,3.953,1.312,1.970,2.210,�k�k��,6.9,��
2014/11/25,00:50,2.078,3.803,4.133,3.728,3.958,1.310,1.972,2.210,�k�k��,6.8,��
2014/11/25,01:00,2.080,3.802,4.135,3.725,3.955,1.313,1.970,2.212,�k�k��,6.5,��
2014/11/25,01:10,2.078,3.805,4.132,3.725,3.957,1.310,1.972,2.210,�k�k��,7.2,��
2014/11/25,01:20,2.080,3.805,4.137,3.720,3.955,1.312,1.972,2.208,�k�k��,6.6,��
2014/11/25,01:30,2.082,3.807,4.137,3.725,3.957,1.312,1.972,2.208,�k�k��,6.0,��
2014/11/25,01:40,2.080,3.802,4.132,3.730,3.957,1.310,1.972,2.210,�k,5.7,��
2014/11/25,01:50,2.082,3.802,4.137,3.727,3.958,1.313,1.975,2.210,�k,5.4,��
2014/11/25,02:00,2.080,3.800,4.133,3.728,3.962,1.313,1.973,2.210,�k,5.0,��
2014/11/25,02:10,2.080,3.802,4.132,3.725,3.958,1.313,1.970,2.213,�k,5.3,��
2014/11/25,02:20,2.078,3.803,4.137,3.725,3.957,1.315,1.970,2.212,�k,4.5,��
2014/11/25,02:30,2.082,3.803,4.137,3.723,3.960,1.313,1.968,2.210,�k,4.0,��
2014/11/25,02:40,2.077,3.805,4.132,3.723,3.957,1.312,1.973,2.210,�k,3.5,��
2014/11/25,02:50,2.082,3.810,4.133,3.725,3.957,1.313,1.972,2.208,�k,2.8,��
2014/11/25,03:00,2.080,3.803,4.133,3.722,3.953,1.312,1.970,2.210,�k,2.6,��
2014/11/25,03:10,2.077,3.803,4.130,3.723,3.950,1.313,1.970,2.210,�k,2.2,��
2014/11/25,03:20,2.078,3.800,4.132,3.720,3.955,1.312,1.970,2.210,�k,3.0,��
2014/11/25,03:30,2.082,3.803,4.133,3.723,3.955,1.313,1.972,2.208,�k,2.8,��
2014/11/25,03:40,2.080,3.805,4.135,3.727,3.952,1.312,1.970,2.210,�k,3.3,��
2014/11/25,03:50,2.078,3.803,4.132,3.720,3.955,1.312,1.970,2.210,�k�k��,3.3,��
2014/11/25,04:00,2.082,3.802,4.130,3.722,3.953,1.313,1.968,2.208,�k,3.1,��
2014/11/25,04:10,2.082,3.802,4.127,3.718,3.957,1.313,1.968,2.212,�k,3.3,��
2014/11/25,04:20,2.078,3.803,4.132,3.720,3.957,1.308,1.970,2.210,�k,3.3,��
2014/11/25,04:30,2.080,3.805,4.132,3.725,3.955,1.313,1.970,2.208,�k,2.7,��
2014/11/25,04:40,2.080,3.803,4.130,3.723,3.955,1.313,1.970,2.208,�k,2.8,��
2014/11/25,04:50,2.078,3.803,4.132,3.725,3.953,1.315,1.973,2.210,�k,2.7,��
2014/11/25,05:00,2.078,3.800,4.130,3.728,3.955,1.310,1.972,2.212,�k,2.9,�L
2014/11/25,05:10,2.077,3.803,4.130,3.727,3.953,1.312,1.972,2.212,�k,3.4,�L
2014/11/25,05:20,2.083,3.802,4.133,3.725,3.952,1.308,1.972,2.210,�k�k��,3.3,�L
2014/11/25,05:30,2.082,3.803,4.128,3.723,3.952,1.310,1.972,2.208,�k,3.7,�L
2014/11/25,05:40,2.080,3.800,4.130,3.723,3.953,1.312,1.970,2.208,�k,3.7,�L
2014/11/25,05:50,2.082,3.797,4.128,3.723,3.952,1.313,1.970,2.210,�k,4.1,�L
2014/11/25,06:00,2.082,3.793,4.125,3.725,3.953,1.312,1.970,2.210,�k,4.6,�L
2014/11/25,06:10,2.078,3.787,4.125,3.715,3.940,1.310,1.968,2.208,�k,4.5,�L
2014/11/25,06:20,2.078,3.785,4.112,3.712,3.937,1.310,1.967,2.210,�k�k��,4.7,�L
2014/11/25,06:30,2.078,3.778,4.105,3.712,3.928,1.312,1.968,2.210,�k�k��,4.6,�L
2014/11/25,06:40,2.078,3.770,4.098,3.705,3.923,1.312,1.967,2.208,�k�k��,4.6,�L
2014/11/25,06:50,2.075,3.767,4.093,3.707,3.913,1.310,1.967,2.207,�k,4.1,�L
2014/11/25,07:00,2.077,3.755,4.083,3.700,3.907,1.300,1.962,2.205,�k,4.2,�L
2014/11/25,07:10,2.068,3.742,4.070,3.697,3.897,1.290,1.960,2.205,�k,3.7,�L
2014/11/25,07:20,2.065,3.720,4.057,3.685,3.875,1.283,1.957,2.203,�k�k��,3.2,�L
2014/11/25,07:30,2.062,3.708,4.043,3.675,3.862,1.273,1.957,2.202,�k�k��,3.5,�L
2014/11/25,07:40,2.058,3.695,4.028,3.670,3.848,1.260,1.952,2.195,�k�k��,3.0,�L
2014/11/25,07:50,2.055,3.683,4.025,3.665,3.838,1.257,1.952,2.195,�k�k��,3.4,�L
2014/11/25,08:00,2.048,3.680,4.018,3.657,3.833,1.252,1.950,2.195,�k,3.4,�L
2014/11/25,08:10,2.050,3.675,4.013,3.650,3.827,1.242,1.945,2.193,�k�k��,3.6,�L
2014/11/25,08:20,2.047,3.662,4.007,3.647,3.820,1.235,1.947,2.190,�k�k��,3.9,�L
2014/11/25,08:30,2.045,3.638,4.000,3.640,3.820,1.235,1.945,2.190,�k�k��,4.9,�L
2014/11/25,08:40,2.043,3.608,3.990,3.630,3.810,1.235,1.945,2.188,�k�k��,4.6,�L
2014/11/25,08:50,2.038,3.617,3.990,3.627,3.803,1.235,1.938,2.187,�k�k��,4.9,�L
2014/11/25,09:00,2.038,3.620,3.983,3.623,3.782,1.235,1.937,2.185,�k�k��,5.1,�L
2014/11/25,09:10,2.033,3.617,3.978,3.617,3.788,1.232,1.932,2.185,�k�k��,5.2,�L
2014/11/25,09:20,2.030,3.617,3.975,3.613,3.788,1.230,1.938,2.185,�k�k��,5.1,�L
2014/11/25,09:30,2.030,3.618,3.972,3.602,3.785,1.227,1.938,2.187,�k�k��,5.2,�L
2014/11/25,09:40,2.028,3.617,3.965,3.603,3.780,1.227,1.935,2.185,�k�k��,5.7,�L
2014/11/25,09:50,2.028,3.610,3.962,3.598,3.777,1.228,1.935,2.183,�k�k��,6.0,�L
2014/11/25,10:00,2.025,3.603,3.953,3.590,3.768,1.227,1.933,2.178,�k�k��,6.0,�L
2014/11/25,10:10,2.020,3.598,3.945,3.587,3.763,1.228,1.930,2.180,�k�k��,6.5,�L
2014/11/25,10:20,2.018,3.602,3.940,3.583,3.760,1.228,1.932,2.173,�k�k��,6.8,�L
2014/11/25,10:30,2.015,3.597,3.938,3.580,3.757,1.228,1.930,2.175,�k�k��,6.3,�L
2014/11/25,10:40,2.015,3.593,3.930,3.573,3.748,1.227,1.925,2.177,�k��,6.4,�L
2014/11/25,10:50,2.013,3.585,3.925,3.567,3.740,1.227,1.925,2.173,�k�k��,6.0,�L
2014/11/25,11:00,2.012,3.577,3.915,3.558,3.732,1.222,1.925,2.175,�k�k��,4.1,�L
2014/11/25,11:10,2.007,3.570,3.908,3.553,3.725,1.225,1.923,2.172,�k,5.8,�L
2014/11/25,11:20,2.002,3.565,3.900,3.552,3.718,1.225,1.923,2.168,�k�k��,5.7,�L
2014/11/25,11:30,2.003,3.562,3.897,3.550,3.717,1.225,1.922,2.167,�k,5.6,�L
2014/11/25,11:40,1.998,3.562,3.888,3.543,3.717,1.223,1.918,2.168,�k�k��,6.3,�L
2014/11/25,11:50,1.993,3.555,3.890,3.538,3.710,1.223,1.915,2.163,�k,6.5,�L
2014/11/25,12:00,2.000,3.555,3.890,3.537,3.705,1.222,1.915,2.163,�k�k��,6.3,�L
2014/11/25,12:10,1.993,3.548,3.882,3.537,3.708,1.223,1.915,2.165,�k,6.3,�L
2014/11/25,12:20,1.995,3.545,3.878,3.535,3.703,1.222,1.913,2.162,�k��,5.7,�L
2014/11/25,12:30,1.992,3.533,3.880,3.527,3.692,1.223,1.913,2.163,�k�k��,6.5,�L
2014/11/25,12:40,1.990,3.533,3.880,3.528,3.695,1.225,1.915,2.165,�k�k��,5.7,�L
2014/11/25,12:50,1.990,3.535,3.878,3.525,3.695,1.222,1.912,2.160,�k�k��,6.7,�L
2014/11/25,13:00,1.987,3.538,3.877,3.523,3.692,1.222,1.912,2.162,�k�k��,6.5,�L
2014/11/25,13:10,1.987,3.542,3.872,3.520,3.687,1.220,1.912,2.160,�k�k��,6.3,�L
2014/11/25,13:20,1.985,3.537,3.867,3.517,3.682,1.220,1.910,2.162,�k�k��,6.8,�L
2014/11/25,13:30,1.983,3.532,3.867,3.515,3.683,1.220,1.912,2.160,�k�k��,6.0,�L
2014/11/25,13:40,1.983,3.523,3.857,3.512,3.675,1.220,1.908,2.162,�k�k��,5.6,�L
2014/11/25,13:50,1.980,3.518,3.855,3.500,3.672,1.222,1.907,2.160,�k�k��,6.0,�L
2014/11/25,14:00,1.980,3.515,3.853,3.497,3.660,1.220,1.903,2.157,�k�k��,6.3,�L
2014/11/25,14:10,1.973,3.495,3.840,3.493,3.653,1.223,1.905,2.155,-,CALM,�L
2014/11/25,14:20,1.968,3.473,3.830,3.488,3.635,1.223,1.898,2.152,�k�k��,5.3,�L
2014/11/25,14:30,1.968,3.477,3.832,3.483,3.632,1.222,1.898,2.150,�k�k��,4.6,�L
2014/11/25,14:40,1.970,3.482,3.828,3.487,3.633,1.225,1.895,2.148,�k,4.3,�L
2014/11/25,14:50,1.973,3.482,3.832,3.483,3.635,1.230,1.895,2.150,�k�k��,6.3,�L
2014/11/25,15:00,1.972,3.482,3.825,3.480,3.633,1.235,1.898,2.148,�k�k��,4.6,�L
2014/11/25,15:10,1.973,3.490,3.825,3.483,3.635,1.235,1.897,2.147,�k�k��,4.5,�L
2014/11/25,15:20,1.975,3.497,3.833,3.483,3.637,1.237,1.895,2.148,�k,4.6,�L
2014/11/25,15:30,1.972,3.497,3.835,3.487,3.633,1.242,1.900,2.148,�k�k��,3.4,�L
2014/11/25,15:40,1.975,3.500,3.833,3.492,3.638,1.242,1.897,2.148,�k,3.5,�L
2014/11/25,15:50,1.978,3.497,3.832,3.487,3.638,1.243,1.900,2.145,�k,4.1,�L
2014/11/25,16:00,1.972,3.490,3.827,3.487,3.632,1.252,1.900,2.148,�k,3.9,�L
2014/11/25,16:10,1.970,3.480,3.820,3.480,3.623,1.252,1.898,2.147,�k,3.9,�L
2014/11/25,16:20,1.970,3.473,3.817,3.477,3.620,1.252,1.900,2.147,�k,4.3,�L
2014/11/25,16:30,1.968,3.480,3.818,3.477,3.618,1.258,1.897,2.147,�k,4.2,�L
2014/11/25,16:40,1.967,3.482,3.827,3.480,3.620,1.258,1.895,2.147,�k,4.3,�L
2014/11/25,16:50,1.965,3.478,3.813,3.473,3.610,1.257,1.898,2.147,�k,4.8,�L
2014/11/25,17:00,1.968,3.473,3.808,3.472,3.608,1.252,1.895,2.143,�k�k��,6.3,�L
2014/11/25,17:10,1.963,3.473,3.810,3.468,3.605,1.252,1.892,2.143,�k��,7.1,�L
2014/11/25,17:20,1.963,3.472,3.807,3.475,3.605,1.257,1.892,2.142,�k�k��,6.6,�L
2014/11/25,17:30,1.965,3.472,3.808,3.472,3.608,1.258,1.893,2.143,�k��,7.2,�L
2014/11/25,17:40,1.967,3.463,3.810,3.472,3.605,1.258,1.892,2.147,�k��,8.0,�L
2014/11/25,17:50,1.965,3.458,3.805,3.465,3.595,1.258,1.893,2.147,�k��,7.8,�L
2014/11/25,18:00,1.970,3.470,3.810,3.470,3.597,1.260,1.888,2.147,�k��,8.5,�L
2014/11/25,18:10,1.968,3.477,3.820,3.475,3.608,1.257,1.892,2.143,�k��,9.4,�L
2014/11/25,18:20,1.972,3.492,3.828,3.480,3.618,1.260,1.890,2.145,�k��,9.9,�L
2014/11/25,18:30,1.973,3.498,3.832,3.483,3.625,1.263,1.890,2.145,�k��,10.4,�L
2014/11/25,18:40,1.973,3.510,3.842,3.487,3.627,1.262,1.893,2.143,�k��,10.2,�L
2014/11/25,18:50,1.975,3.515,3.843,3.488,3.630,1.260,1.895,2.145,�k��,9.1,�L
2014/11/25,19:00,1.977,3.515,3.845,3.490,3.642,1.262,1.893,2.147,�k��,10.4,�L
2014/11/25,19:10,1.977,3.522,3.850,3.493,3.642,1.260,1.897,2.150,�k��,8.5,�L
2014/11/25,19:20,1.978,3.522,3.850,3.495,3.643,1.258,1.895,2.152,�k��,11.2,�L
2014/11/25,19:30,1.977,3.525,3.850,3.495,3.643,1.262,1.898,2.150,�k��,8.8,�L
2014/11/25,19:40,1.978,3.528,3.853,3.497,3.647,1.265,1.897,2.150,�k�k��,9.9,�L
2014/11/25,19:50,1.977,3.528,3.858,3.498,3.652,1.260,1.898,2.150,�k��,9.1,�L
2014/11/25,20:00,1.980,3.532,3.860,3.498,3.652,1.260,1.897,2.153,�k��,11.2,�L
2014/11/25,20:10,1.980,3.525,3.858,3.497,3.650,1.262,1.897,2.152,�k��,10.2,�L
2014/11/25,20:20,1.980,3.533,3.858,3.495,3.650,1.258,1.897,2.150,�k��,10.2,�L
2014/11/25,20:30,1.977,3.535,3.858,3.493,3.652,1.262,1.902,2.150,�k��,10.2,�L
2014/11/25,20:40,1.978,3.538,3.860,3.497,3.653,1.263,1.900,2.153,�k��,9.9,�L
2014/11/25,20:50,1.978,3.538,3.868,3.503,3.660,1.262,1.902,2.155,�k��,10.1,��
2014/11/25,21:00,1.980,3.540,3.865,3.503,3.662,1.262,1.900,2.153,�k��,9.9,�L
2014/11/25,21:10,1.982,3.540,3.868,3.503,3.667,1.263,1.902,2.155,�k��,9.3,�L
2014/11/25,21:20,1.983,3.547,3.872,3.505,3.672,1.263,1.902,2.158,�k��,9.9,�L
2014/11/25,21:30,1.982,3.552,3.873,3.510,3.672,1.260,1.903,2.155,�k��,10.5,�L
2014/11/25,21:40,1.983,3.555,3.878,3.507,3.675,1.262,1.905,2.153,�k��,10.8,�L
2014/11/25,21:50,1.982,3.552,3.880,3.507,3.680,1.262,1.902,2.155,�k��,12.3,��
2014/11/25,22:00,1.985,3.555,3.880,3.508,3.680,1.262,1.903,2.158,�k�k��,11.3,��
2014/11/25,22:10,1.982,3.553,3.880,3.508,3.678,1.262,1.903,2.157,�k�k��,10.7,�L
2014/11/25,22:20,1.983,3.560,3.883,3.515,3.677,1.262,1.903,2.160,�k��,10.2,�L
2014/11/25,22:30,1.983,3.560,3.888,3.513,3.683,1.263,1.905,2.158,�k��,10.7,��
2014/11/25,22:40,1.987,3.565,3.888,3.513,3.688,1.265,1.905,2.158,�k�k��,10.5,��
2014/11/25,22:50,1.985,3.563,3.892,3.517,3.690,1.263,1.907,2.158,�k��,10.5,��
2014/11/25,23:00,1.985,3.563,3.888,3.518,3.690,1.265,1.907,2.160,�k��,11.0,��
2014/11/25,23:10,1.983,3.565,3.892,3.518,3.693,1.263,1.907,2.160,�k�k��,10.1,��
2014/11/25,23:20,1.985,3.570,3.897,3.523,3.693,1.260,1.907,2.162,�k��,10.7,��
2014/11/25,23:30,1.985,3.568,3.893,3.522,3.695,1.263,1.905,2.160,�k��,9.9,��
2014/11/25,23:40,1.988,3.570,3.895,3.527,3.700,1.263,1.907,2.158,�k�k��,9.3,��
2014/11/25,23:50,1.985,3.573,3.898,3.520,3.702,1.262,1.907,2.160,�k��,10.7,��
